User: anonymous   Login
Location: Mentone
(34.5413°N, 85.5351°W)
Time: 15:16:57
(UTC-06:00)
Language:

ERBS - Orbit

View from above orbital plane
View from above orbital plane
View from above satellite
View from above satellite

Ground track
Ground track

The orbit data is extracted from the following two-line orbital elements,

1 15354U 84108B   17023.54508885 +.00002651 +00000-0 +68927-4 0  9995
2 15354 057.0090 040.6682 0011729 161.9240 198.2234 15.42637426775873
Epoch (UTC): 23 January 2017 13:04:55
Eccentricity: 0.0011729
inclination: 57.0090°
perigee height: 430 km
apogee height: 446 km
right ascension of ascending node: 40.6682°
argument of perigee: 161.9240°
revolutions per day: 15.42637426
mean anomaly at epoch: 198.2234°
orbit number at epoch: 77587

The dashed part of the orbit path shows where the satellite is in the earth's shadow,  

DLR